User: anonymous   Login
Location: North Smoke Tower Site
(30.5430°N, 82.3390°W)
Time: 16:48:54
(UTC-04:00)
Language:

Cosmos 1980 Rocket - Orbit

View from above orbital plane
View from above orbital plane
View from above satellite
View from above satellite

Ground track
Ground track

The orbit data is extracted from the following two-line orbital elements,

1 19650U 88102B   16269.05296405 -.00000236  00000-0 -95581-4 0  9990
2 19650  70.9981 212.5932 0016135 232.0332 127.9334 14.15744889438467
Epoch (UTC): 25 September 2016 01:16:16
Eccentricity: 0.0016135
inclination: 70.9981°
perigee height: 828 km
apogee height: 851 km
right ascension of ascending node: 212.5932°
argument of perigee: 232.0332°
revolutions per day: 14.15744889
mean anomaly at epoch: 127.9334°
orbit number at epoch: 43846

The dashed part of the orbit path shows where the satellite is in the earth's shadow,  

DLR